User: anonymous   Login
Location: Bilbao
(43.2630°N, 2.9350°W)
Time: 21:36:06
(UTC+01:00)
Language:

Falconsat - Orbit

View from above orbital plane
View from above orbital plane
View from above satellite
View from above satellite

Ground track
Ground track

The orbit data is extracted from the following two-line orbital elements,

1 26064U 00004D   22024.51764012  .00000020  00000-0  27103-4 0  9997
2 26064 100.2161 357.5692 0037018 262.6823  97.0150 14.36266621152340
Epoch (UTC): 24 January 2022 12:25:24
Eccentricity: 0.0037018
inclination: 100.2161°
perigee height: 744 km
apogee height: 797 km
right ascension of ascending node: 357.5692°
argument of perigee: 262.6823°
revolutions per day: 14.36266621
mean anomaly at epoch: 97.0150°
orbit number at epoch: 15234

The dashed part of the orbit path shows where the satellite is in the earth's shadow,  

DLR